Voltar ao catálogo

COSMOS 2491 DEB

LostPO
NORAD 57551·DEBRIS·🇷🇺 Russia

Lançado Dec 25, 2013 de Plesetsk Cosmodrome

Loading…

Próximas Passagens (próximas 24 horas)

TLE

ObsoletoSource: Space-Track

Época: Apr 21, 2026, 22:52 UTC

1 57551U 13076AN  26111.95326265  .00001865  00000-0  11401-1 0  9997
2 57551  82.4300 196.0778 0126761 151.5550 209.2531 12.52909790134739

Acompanhe COSMOS 2491 DEB em tempo real com AllMySat

Download on the App Store